Pompano Beach, FL

8:02 AM EDT on October 19, 2017 (GMT -0400)
Pompano Beach

Weather History for KPMP - January, 2015

Change the Weather History Date:

Sunday, January 18, 2015

  Actual Average Record
Temperature  
Mean Temperature 70 °F -  
Max Temperature 79 °F 75 °F 86 °F (1960)
Min Temperature 62 °F 56 °F 34 °F (1977)
Cooling Degree Days 6    
Growing Degree Days 20 (Base 50)    
Moisture  
Dew Point 55 °F    
Average Humidity 61    
Maximum Humidity 81    
Minimum Humidity 36    
Precipitation  
Precipitation 0.00 in - - ()
Sea Level Pressure  
Sea Level Pressure 30.11 in    
Wind  
Wind Speed 7 mph (WNW)    
Max Wind Speed 18 mph    
Max Gust Speed -    
Visibility 10 miles    
Events      
Averages and records for this station are not official NWS values.
T = Trace of Precipitation, MM = Missing Value Source: NWS Daily Summary

Daily Weather History Graph

Daily Weather History Graph

Search for Another Location

Airport or City:

Trip Planner

Search our weather history database for the weather conditions in past years. The results will help you decide how hot, cold, wet, or windy it might be!

Date:

Astronomy

Jan. 18, 2015 Rise Set
Actual Time 7:09 AM EST 5:52 PM EST
Civil Twilight 6:44 AM EST 6:17 PM EST
Nautical Twilight 6:16 AM EST 6:45 PM EST
Astronomical Twilight 5:48 AM EST 7:13 PM EST
Moon 5:04 AM EST (1/18) 4:13 PM EST (1/18)
Length of Visible Light 11h 32m
Length of Day
10h 43m
Waning Crescent, 5% of the Moon is Illuminated
Jan 18
Waning Crescent
Jan 20
New
Jan 26
First Quarter
Feb 3
Full
Feb 11
Last Quarter

Hourly Weather History & Observations

Time (EST) Temp. Dew Point Humidity Pressure Visibility Wind Dir Wind Speed Gust Speed Precip Events Conditions
12:53 AM 73.0 °F 57.9 °F 59% 30.10 in 10.0 mi SSE 9.2 mph - N/A   Partly Cloudy
1:53 AM 71.1 °F 57.9 °F 63% 30.10 in 10.0 mi SSW 4.6 mph - N/A   Clear
2:53 AM 69.1 °F 57.9 °F 68% 30.09 in 10.0 mi SW 4.6 mph - N/A   Clear
3:53 AM 66.0 °F 57.0 °F 73% 30.09 in 10.0 mi WSW 3.5 mph - N/A   Clear
4:53 AM 64.0 °F 57.9 °F 80% 30.07 in 10.0 mi Calm Calm - N/A   Clear
5:53 AM 64.0 °F 57.0 °F 78% 30.09 in 10.0 mi West 3.5 mph - N/A   Clear
6:53 AM 63.0 °F 57.0 °F 81% 30.10 in 10.0 mi WNW 3.5 mph - N/A   Clear
7:53 AM 64.9 °F 59.0 °F 81% 30.12 in 10.0 mi Calm Calm - N/A   Partly Cloudy
8:53 AM 69.1 °F 59.0 °F 70% 30.14 in 10.0 mi NW 6.9 mph - N/A   Partly Cloudy
9:53 AM 72.0 °F 59.0 °F 64% 30.15 in 10.0 mi WNW 6.9 mph - N/A   Scattered Clouds
10:53 AM 73.9 °F 59.0 °F 59% 30.15 in 10.0 mi NW 10.4 mph - N/A   Partly Cloudy
11:53 AM 77.0 °F 60.1 °F 56% 30.13 in 10.0 mi WNW 8.1 mph - N/A   Scattered Clouds
12:53 PM 77.0 °F 60.1 °F 56% 30.10 in 10.0 mi WNW 15.0 mph - N/A   Mostly Cloudy
1:53 PM 77.0 °F 59.0 °F 54% 30.07 in 10.0 mi West 11.5 mph - N/A   Scattered Clouds
2:53 PM 79.0 °F 57.0 °F 47% 30.06 in 10.0 mi NW 10.4 mph - N/A   Scattered Clouds
3:53 PM 77.0 °F 48.0 °F 36% 30.07 in 10.0 mi NNW 18.4 mph - N/A   Clear
4:53 PM 75.9 °F 46.9 °F 36% 30.09 in 10.0 mi NNW 13.8 mph - N/A   Clear
5:53 PM 72.0 °F 48.0 °F 43% 30.10 in 10.0 mi NNW 8.1 mph - N/A   Clear
6:53 PM 69.1 °F 48.9 °F 49% 30.12 in 10.0 mi NNW 4.6 mph - N/A   Clear
7:53 PM 66.0 °F 51.1 °F 59% 30.12 in 10.0 mi NNW 4.6 mph - N/A   Clear
8:53 PM 64.9 °F 51.1 °F 61% 30.14 in 10.0 mi NNW 5.8 mph - N/A   Clear
9:53 PM 64.9 °F 51.1 °F 61% 30.16 in 8.0 mi NNW 4.6 mph - N/A   Clear
10:53 PM 62.1 °F 51.1 °F 67% 30.16 in 7.0 mi NNW 4.6 mph - N/A   Clear
11:53 PM 63.0 °F 51.1 °F 65% 30.15 in 7.0 mi Calm Calm - N/A   Clear